Louis Armstrong New Orleans International Airport
KMSY : now visible

Airfield :











YOU CAN JOIN US ON...

 
LOGIN :

Register | Disclaimer

   EN    FR    IT 

 









Legend :    VFR   Marginal VFR   IFR   Intensive IFR   Very Intensive IFR
Visi :
Ceiling :
>= 8 km
>= 3000ft
5 to 8 km
1000 to 3000 ft
1500m to 5 km
500 to 1000 ft
800 to 1500m
200 to 500 ft
< 800m
< 200 ft
Symbols :   Thunderstorms  Fog  Heavy snow  Heavy precipitations  Wind > 20 kt






- Airport Elevation : 4 ft
- IATA code : MSY


KMSY - Louis Armstrong New Orleans International

CURRENT METAR :
  • 160553Z 13006KT 10SM CLR 21/16 A3013 RMK AO2 SLP206 T02110161 10256 20211 402780178 58002 $

EXPIRED METARs :
  • 160453Z 15006KT 10SM CLR 22/16 A3014 RMK AO2 SLP210 T02170161 $
  • 160353Z 14005KT 10SM CLR 22/16 A3014 RMK AO2 SLP210 T02220161 $

TAF KMSY
Valid from the 16 at 06:00 until the 17 at 12:00 UTC


160520Z 1606/1712 14005KT P6SM SKC
FM161400 12007KT P6SM BKN070
KZHU FIR / North America



MET'MAP, your aeronautical weather chart ! - Copyright ORBIFLY December 2007 - Disclaimer

ORBIFLY MET'MAP TEAM :

Programming & Development : Alexandra Zaïnal
Concept & original design : Baudouin d'Aumeries
Assistance for programming : Marc-Olivier Méhu
Technical & hardware support : Manuel Goepfert

Contact : metmap@orbifly.com




SOURCES & CREDITS :

   NOAA       Earth
Advisory